STARLINK-32421, 61628

Orbit data source: Space-Track

STARLINK-32421, 61628 is a payload satellite owned by SpaceX/Seattle (US) in LEO that was launched on Wed, 23 Oct 2024 UTC via an FALCON 9 launch vehicle from the Air Force Eastern Test Range (AFETR). Payload-class satellites include a variety of spacecraft equipped with specific instruments for various scientific and technological missions. These include communications satellites like Starlink; space stations such as the ISS; scientific satellites like the Hubble; Earth observation satellites from companies like Planet Labs, Umbra, and HawkEye 360; GPS; miniature CubeSats for education and research; and military/defense satellites.

Loading next visibility...
Identifier
61628, 2024-191H
Orbit
LEO
Country
Flag of USUS
Related business
Manufacturer
SpaceX/Seattle
Mission
Operational spacecraft
Bus & Motor
STARLINK V2M, Unknown motor
Mass
730 kg wet, ~700 kg dry
Launch date (UTC)
2024-10-23 (1 year ago)
Launch vehicle
FALCON 9
Launch site
Air Force Eastern Test Range (AFETR)
Object type
Payload
Rocket body
Debris
Shape & HBR
Unknown shape, 17.7 m
Radar Cross Section
Large (>1 m²)

Expand to show TLE details & history
Last TLE update: 11 hours ago

TLE from 11 hours ago
0 STARLINK-32421
1 61628U 24191H   25309.24972945  .00001264  00000-0  55450-4 0  9997
2 61628  43.0045 137.3893 0001247 278.6117  81.4593 15.27590335 58509
Epoch: 2025-11-05T05:59Z
TLE epoch observation values (Epoch: 2025-11-05T05:59:36.624Z)
Latitude
-0.00005°
Longitude
2.76155°
Altitude
482.667 km
Speed
7.626 km/s
True Right ascension
09h 09m 33s
True Declination
0° 00' 00"
Sunlit
Object was in daylight at epoch
Visualization orbit readout
Latitude
Unknown
Longitude
Unknown
Altitude
Unknown
Speed
Unknown
Apparent Right ascension
Unknown
Apparent Declination
Unknown
Sunlit
N/A
Visualization observer readout
Local Sidereal Time
12:53:07
Azimuth
Unknown
Elevation
Unknown
Doppler factor
Unknown
Orbital elements
Apogee altitude
485.818 km
Perigee altitude
484.107 km
Semi-major axis
6,863.1 km
Eccentricity
0.00012
Inclination
43.0045°
RAAN
137.3893°
Arg. of periapsis
278.6117°
True anomaly
81.47343°
Mean anomaly
81.4593°
Eccentric anomaly
81.46637°
Mean motion
3.81736 °/min
Orbital period
94.31 mins
BSTAR
0.00005545
Loading maneuver chart data...
Computing Atmospheric mass density...
Loading historical data...
Loading historical data...
Loading historical data...
Loading historical data...
Loading historical data...
Loading historical data...
Loading historical data...

Documentation

Showing up to 5 results
|